"Pseudo-MPEC" for A11GjiS

Created 2026 Sep 3 19:35:04 UT using Find_Orb

Click here for an explanation of pseudo-MPECs

 
 Astrometry: 
     A11GjiS*0C2026 09 03.04866202 46 35.750-22 42 03.64   ~93IZ 16.04oVNEOCPM22
     A11GjiS 0C2026 09 03.05181702 46 31.560-22 37 02.60   ~93IZ 16.06oVNEOCPM22
     A11GjiS 0C2026 09 03.07308902 46 01.524-22 02 21.16   ~93IZ 15.69oVNEOCPM22
     A11GjiS 0C2026 09 03.07762202 45 54.792-21 54 46.01   ~93IZ 15.74oVNEOCPM22

Station data:
(M22) ATLAS South Africa, Sutherland  (S32.380156 E20.810590)  South Africa.
   Observers L. Denneau, R. Siverd, J. Tonry, H. Weiland. Measurers L.
   Denneau, N. Erasmus, A. Fitzsimmons, J. Robinson, R. Siverd, J. Tonry, H.
   Weiland. 0.5-m f/2.0 Schmidt + CCD.

Orbital elements:  A11GjiS
   Perihelion 2026 Nov 8.747751 +/- 23.3 TT = 17:56:45.6 (JD 2461353.247751)
Epoch 2026 Sep  3.0 TT = JDT 2461286.5   Earth MOID: 0.0031      AutoNEOCP
M 302.262836617 +/- 31              (J2000 ecliptic)
n   0.865005375 +/- 0.176           Peri.   76.718893 +/- 30
a   1.090913153 +/- 0.148           Node   341.217996 +/- 0.18
e   0.18293447 +/- 0.107            Incl.   28.001273 +/- 13
P   1.139/416.175d         H 24.04  G  0.15   U 11.6  SR
q 0.891347525 +/- 0.101    Q 1.290478782 +/- 0.293
From 4 observations 2026 Sept. 3 (41.7 min); mean residual 1".23
Residuals in arcseconds: 
260903 M22  1.3-  .96+    260903 M22  1.5+  1.3-    
260903 M22  1.2+  .88-    260903 M22  1.4-  1.2+    

Ephemerides (geocentric):
Date (UTC) HH   RA             Dec           delta  r     elong  mag " sig PA
---- --------  ------------   ------------  ------ ------ -----  --- --------
2026 09 03 20  02 22 20.796   +17 00 49.98  880981 1.0118 122.1 15.0  20d  18
2026 09 03 21  02 20 07.538   +20 27 50.35  866860 1.0116 121.3 15.0  23d  26
2026 09 03 22  02 17 43.962   +24 00 45.91  856045 1.0115 120.4 15.0  28d  42
2026 09 03 23  02 15 08.855   +27 38 06.51  848665 1.0114 119.4 15.0  34d  55
2026 09 04 00  02 12 20.813   +31 18 08.93  844808 1.0113 118.2 15.0  37d  60
2026 09 04 01  02 09 18.203   +34 59 01.18  844524 1.0112 116.9 15.1  39d  64
2026 09 04 02  02 05 59.118   +38 38 47.68  847815 1.0110 115.5 15.1  40d  66
2026 09 04 03  02 02 21.317   +42 15 34.85  854640 1.0109 114.0 15.2  40d  68
2026 09 04 04  01 58 22.154   +45 47 36.43  864916 1.0108 112.4 15.2  40d  68
2026 09 04 05  01 53 58.492   +49 13 17.78  878522 1.0107 110.8 15.3  40d  69
2026 09 04 06  01 49 06.589   +52 31 18.89  895304 1.0105 109.3 15.4  39d  70
2026 09 04 07  01 43 41.959   +55 40 35.76  915090 1.0104 107.7 15.5  38d  72
2026 09 04 08  01 37 39.199   +58 40 20.30  937687 1.0103 106.1 15.6  35d  73
2026 09 04 09  01 30 51.778   +61 29 59.06  962898 1.0102 104.6 15.7  33d  74
2026 09 04 10  01 23 11.772   +64 09 10.95  990524 1.0100 103.2 15.8  30d  74
2026 09 04 11  01 14 29.553   +66 37 44.53  .00682 1.0099 101.8 15.9  27d  74
2026 09 04 12  01 04 33.445   +68 55 34.91  .00703 1.0098 100.5 16.1  25d  75
2026 09 04 13  00 53 09.362   +71 02 40.62  .00726 1.0097  99.2 16.2  22d  75
2026 09 04 14  00 40 00.532   +72 59 00.57  .00750 1.0095  98.0 16.3  20d  76
2026 09 04 15  00 24 47.475   +74 44 31.14  .00774 1.0094  96.9 16.4  18d  77
2026 09 04 16  00 07 08.583   +76 19 03.60  .00800 1.0093  95.8 16.5 958'  79
2026 09 04 17  23 46 41.867   +77 42 22.28  .00826 1.0092  94.8 16.6 850'  82
2026 09 04 18  23 23 08.676   +78 54 04.11  .00854 1.0090  93.9 16.7 755'  88
2026 09 04 19  22 56 20.108   +79 53 40.88  .00881 1.0089  93.0 16.8 682' 123
2026 09 04 20  22 26 25.769   +80 40 45.48  .00910 1.0088  92.2 16.9 665' 161
2026 09 04 21  21 54 02.070   +81 15 02.87  .00939 1.0087  91.4 17.0 656' 166
2026 09 04 22  21 20 14.265   +81 36 43.35  .00969 1.0085  90.7 17.1 649' 166
2026 09 04 23  20 46 26.927   +81 46 32.61  .00999 1.0084  90.0 17.2 645' 163
2026 09 05 00  20 14 04.513   +81 45 51.83  .01029 1.0083  89.3 17.3 645' 158
2026 09 05 01  19 44 12.000   +81 36 26.60  .01060 1.0082  88.7 17.4 652' 153
2026 09 05 02  19 17 25.489   +81 20 10.13  .01092 1.0080  88.1 17.5 665' 147
2026 09 05 03  18 53 54.339   +80 58 48.59  .01123 1.0079  87.6 17.6 685' 142
2026 09 05 04  18 33 29.502   +80 33 52.53  .01155 1.0078  87.0 17.6 710' 138
2026 09 05 05  18 15 52.264   +80 06 34.32  .01187 1.0077  86.6 17.7 740' 135
2026 09 05 06  18 00 40.625   +79 37 49.35  .01220 1.0075  86.1 17.8 772' 133
2026 09 05 07  17 47 32.993   +79 08 18.77  .01252 1.0074  85.7 17.9 804' 131
2026 09 05 08  17 36 09.915   +78 38 32.56  .01285 1.0073  85.2 18.0 837' 130
2026 09 05 09  17 26 14.649   +78 08 52.17  .01318 1.0072  84.8 18.0 864' 130
2026 09 05 10  17 17 33.136   +77 39 32.76  .01352 1.0070  84.5 18.1 866' 131
2026 09 05 11  17 09 53.723   +77 10 44.83  .01385 1.0069  84.1 18.2 740' 141
2026 09 05 12  17 03 06.804   +76 42 35.47  .01419 1.0068  83.8 18.2 741' 137
2026 09 05 13  16 57 04.471   +76 15 09.31  .01453 1.0067  83.4 18.3 753' 133
2026 09 05 14  16 51 40.205   +75 48 29.16  .01487 1.0066  83.1 18.4 766' 131
2026 09 05 15  16 46 48.615   +75 22 36.53  .01521 1.0064  82.8 18.4 779' 129
2026 09 05 16  16 42 25.224   +74 57 31.96  .01555 1.0063  82.6 18.5 792' 128
2026 09 05 17  16 38 26.298   +74 33 15.32  .01589 1.0062  82.3 18.5 804' 127
2026 09 05 18  16 34 48.704   +74 09 46.02  .01623 1.0061  82.0 18.6 816' 126
2026 09 05 19  16 31 29.801   +73 47 03.09  .01658 1.0059  81.8 18.6 826' 126